DAL4251 SKSP-SKBO

Flight info

Callsign DAL4251
Flight time 1h 45m
Altitude FL330
Route BODE2B VUNIB UP530 LCE RNG ILSE5E
Aircraft B733/M-S/NAEXS

Departure

Time 2026-04-30 05:10
Airport Gustavo Rojas Pinilla International Airport (SKSP)

Arrival

Time 2026-04-30 06:56
Airport El Dorado International Airport (SKBO)
Time Latitude Longitude Altitude Speed Heading
2026-04-30 04:49 12.59481 -81.69914 26 ft 0 kts 152°
2026-04-30 05:00 12.59492 -81.69920 26 ft 2 kts 152°
2026-04-30 05:00 12.59508 -81.69928 26 ft 3 kts 152°
2026-04-30 05:01 12.59521 -81.69936 26 ft 0 kts 152°
2026-04-30 05:02 12.59521 -81.69935 26 ft 0 kts 152°
2026-04-30 05:02 12.59520 -81.69935 26 ft 0 kts 152°
2026-04-30 05:04 12.59518 -81.69934 26 ft 1 kts 161°
2026-04-30 05:04 12.59511 -81.69936 26 ft 1 kts 209°
2026-04-30 05:04 12.59504 -81.69949 26 ft 3 kts 243°
2026-04-30 05:04 12.59488 -81.69980 26 ft 6 kts 243°
2026-04-30 05:05 12.59462 -81.70027 26 ft 9 kts 240°
2026-04-30 05:05 12.59444 -81.70091 26 ft 11 kts 282°
2026-04-30 05:05 12.59473 -81.70171 26 ft 13 kts 277°
2026-04-30 05:06 12.59382 -81.70355 26 ft 16 kts 241°
2026-04-30 05:06 12.59323 -81.70461 26 ft 18 kts 240°
2026-04-30 05:06 12.59258 -81.70575 26 ft 19 kts 239°
2026-04-30 05:06 12.59188 -81.70697 26 ft 20 kts 240°
2026-04-30 05:07 12.59113 -81.70825 26 ft 22 kts 239°
2026-04-30 05:07 12.59037 -81.70959 26 ft 22 kts 240°
2026-04-30 05:07 12.58955 -81.71098 26 ft 23 kts 240°
2026-04-30 05:07 12.58877 -81.71241 26 ft 24 kts 239°
2026-04-30 05:08 12.58794 -81.71388 26 ft 24 kts 240°
2026-04-30 05:08 12.58708 -81.71537 26 ft 25 kts 240°
2026-04-30 05:08 12.58639 -81.71657 26 ft 16 kts 239°
2026-04-30 05:08 12.58569 -81.71728 26 ft 14 kts 207°
2026-04-30 05:09 12.58568 -81.71775 26 ft 8 kts 28°
2026-04-30 05:09 12.58582 -81.71757 26 ft 0 kts 59°
2026-04-30 05:09 12.58613 -81.71703 26 ft 34 kts 61°
2026-04-30 05:09 12.58839 -81.71298 26 ft 95 kts 64°
2026-04-30 05:10 12.59261 -81.70560 26 ft 144 kts 57°
2026-04-30 05:10 12.59827 -81.69558 140 ft 176 kts 64°
2026-04-30 05:10 12.60455 -81.68430 560 ft 185 kts 62°
2026-04-30 05:10 12.61036 -81.67244 1072 ft 190 kts 69°
2026-04-30 05:11 12.61466 -81.65968 1599 ft 190 kts 78°
2026-04-30 05:11 12.61645 -81.64615 1980 ft 196 kts 91°
2026-04-30 05:11 12.61664 -81.63182 2328 ft 212 kts 95°
2026-04-30 05:11 12.61246 -81.61665 2601 ft 237 kts 122°
2026-04-30 05:12 12.60092 -81.60395 3150 ft 248 kts 142°
2026-04-30 05:12 12.58765 -81.59271 4011 ft 251 kts 142°
2026-04-30 05:12 12.57424 -81.58131 4855 ft 254 kts 142°
2026-04-30 05:12 12.56054 -81.56979 5709 ft 255 kts 142°
2026-04-30 05:13 12.54676 -81.55818 6488 ft 260 kts 142°
2026-04-30 05:13 12.53298 -81.54636 7299 ft 261 kts 142°
2026-04-30 05:13 12.51899 -81.53413 8063 ft 265 kts 141°
2026-04-30 05:13 12.50504 -81.52175 8856 ft 266 kts 141°
2026-04-30 05:14 12.49109 -81.50917 9572 ft 270 kts 142°
2026-04-30 05:14 12.47706 -81.49640 10225 ft 277 kts 142°
2026-04-30 05:14 12.46212 -81.48271 10533 ft 296 kts 141°
2026-04-30 05:14 12.44657 -81.46835 11053 ft 307 kts 141°
2026-04-30 05:15 12.43074 -81.45355 11778 ft 311 kts 140°
2026-04-30 05:15 12.41479 -81.43858 12591 ft 313 kts 140°
2026-04-30 05:15 12.39880 -81.42347 13369 ft 315 kts 139°
2026-04-30 05:15 12.38265 -81.40816 14089 ft 319 kts 139°
2026-04-30 05:16 12.36640 -81.39270 14813 ft 323 kts 139°
2026-04-30 05:16 12.34980 -81.37687 15482 ft 328 kts 139°
2026-04-30 05:16 12.33318 -81.36098 16130 ft 333 kts 139°
2026-04-30 05:16 12.31611 -81.34463 16803 ft 337 kts 139°
2026-04-30 05:17 12.29957 -81.32879 17480 ft 339 kts 139°
2026-04-30 05:17 12.28211 -81.31201 18101 ft 344 kts 139°
2026-04-30 05:17 12.26463 -81.29520 18758 ft 346 kts 139°
2026-04-30 05:17 12.24754 -81.27877 19336 ft 351 kts 139°
2026-04-30 05:18 12.22958 -81.26147 19916 ft 355 kts 139°
2026-04-30 05:18 12.21159 -81.24417 20508 ft 358 kts 139°
2026-04-30 05:18 12.19343 -81.22665 21096 ft 361 kts 139°
2026-04-30 05:18 12.17516 -81.20906 21699 ft 364 kts 139°
2026-04-30 05:19 12.15685 -81.19141 22305 ft 365 kts 139°
2026-04-30 05:19 12.13832 -81.17356 22961 ft 366 kts 138°
2026-04-30 05:19 12.11996 -81.15587 23503 ft 369 kts 138°
2026-04-30 05:19 12.10103 -81.13762 24020 ft 373 kts 138°
2026-04-30 05:20 12.08216 -81.11943 24553 ft 375 kts 138°
2026-04-30 05:20 12.06301 -81.10101 24970 ft 381 kts 139°
2026-04-30 05:20 12.04364 -81.08231 25401 ft 386 kts 139°
2026-04-30 05:20 12.02417 -81.06358 25890 ft 389 kts 139°
2026-04-30 05:21 12.00430 -81.04446 26263 ft 396 kts 139°
2026-04-30 05:21 11.98407 -81.02498 26645 ft 401 kts 139°
2026-04-30 05:21 11.96366 -81.00534 27133 ft 404 kts 139°
2026-04-30 05:21 11.94339 -80.98580 27698 ft 403 kts 139°
2026-04-30 05:22 11.92306 -80.96623 28254 ft 403 kts 139°
2026-04-30 05:22 11.90266 -80.94663 28658 ft 407 kts 139°
2026-04-30 05:22 11.88198 -80.92673 29072 ft 409 kts 139°
2026-04-30 05:22 11.86120 -80.90677 29467 ft 412 kts 139°
2026-04-30 05:23 11.84029 -80.88664 29823 ft 415 kts 139°
2026-04-30 05:23 11.81932 -80.86647 30221 ft 417 kts 139°
2026-04-30 05:23 11.79814 -80.84610 30629 ft 418 kts 139°
2026-04-30 05:23 11.77715 -80.82591 31047 ft 418 kts 139°
2026-04-30 05:24 11.75723 -80.80508 31495 ft 418 kts 135°
2026-04-30 05:24 11.73732 -80.78360 32092 ft 413 kts 135°
2026-04-30 05:24 11.71788 -80.76254 32673 ft 409 kts 135°
2026-04-30 05:24 11.69825 -80.74145 32868 ft 414 kts 135°
2026-04-30 05:25 11.65796 -80.69817 32918 ft 428 kts 135°
2026-04-30 05:25 11.61680 -80.65410 32921 ft 433 kts 136°
2026-04-30 05:26 11.57549 -80.60989 32911 ft 430 kts 136°
2026-04-30 05:26 11.53428 -80.56583 32916 ft 429 kts 136°
2026-04-30 05:27 11.49317 -80.52193 32911 ft 431 kts 136°
2026-04-30 05:27 11.45145 -80.47743 32918 ft 436 kts 136°
2026-04-30 05:28 11.40940 -80.43262 32915 ft 437 kts 136°
2026-04-30 05:28 11.36768 -80.38810 32915 ft 438 kts 136°
2026-04-30 05:29 11.32549 -80.34317 32916 ft 438 kts 136°
2026-04-30 05:29 11.28396 -80.29893 32914 ft 438 kts 136°
2026-04-30 05:30 11.24199 -80.25424 32918 ft 435 kts 136°
2026-04-30 05:30 11.20044 -80.21005 32913 ft 432 kts 136°
2026-04-30 05:31 11.15894 -80.16596 32918 ft 432 kts 136°
2026-04-30 05:31 11.11742 -80.12182 32917 ft 431 kts 136°
2026-04-30 05:32 11.07620 -80.07802 32914 ft 430 kts 136°
2026-04-30 05:32 11.03479 -80.03406 32917 ft 430 kts 136°
2026-04-30 05:33 10.99343 -79.99016 32913 ft 430 kts 136°
2026-04-30 05:33 10.95215 -79.94636 32917 ft 430 kts 136°
2026-04-30 05:34 10.91086 -79.90259 32918 ft 430 kts 136°
2026-04-30 05:34 10.87035 -79.85963 32911 ft 427 kts 136°
2026-04-30 05:35 10.82928 -79.81609 32915 ft 429 kts 136°
2026-04-30 05:35 10.78838 -79.77279 32913 ft 428 kts 136°
2026-04-30 05:36 10.74722 -79.72925 32914 ft 430 kts 136°
2026-04-30 05:36 10.70591 -79.68549 32915 ft 427 kts 136°
2026-04-30 05:37 10.66480 -79.64204 32916 ft 426 kts 136°
2026-04-30 05:37 10.62382 -79.59871 32911 ft 427 kts 136°
2026-04-30 05:38 10.58256 -79.55519 32918 ft 428 kts 136°
2026-04-30 05:38 10.54152 -79.51182 32913 ft 428 kts 136°
2026-04-30 05:39 10.50020 -79.46849 32914 ft 428 kts 136°
2026-04-30 05:39 10.45862 -79.42530 32916 ft 429 kts 136°
2026-04-30 05:40 10.41699 -79.38208 32912 ft 427 kts 136°
2026-04-30 05:40 10.37550 -79.33902 32916 ft 429 kts 136°
2026-04-30 05:41 10.33452 -79.29651 32917 ft 424 kts 136°
2026-04-30 05:41 10.29333 -79.25378 32912 ft 423 kts 136°
2026-04-30 05:42 10.25198 -79.21087 32923 ft 430 kts 136°
2026-04-30 05:42 10.21046 -79.16774 32914 ft 423 kts 136°
2026-04-30 05:43 10.16953 -79.12533 32914 ft 423 kts 136°
2026-04-30 05:43 10.12859 -79.08286 32913 ft 422 kts 136°
2026-04-30 05:44 10.08752 -79.04034 32914 ft 424 kts 136°
2026-04-30 05:44 10.04595 -78.99734 32917 ft 431 kts 136°
2026-04-30 05:45 10.00402 -78.95393 32917 ft 435 kts 137°
2026-04-30 05:45 9.96143 -78.90984 32916 ft 437 kts 137°
2026-04-30 05:46 9.91893 -78.86587 32915 ft 437 kts 137°
2026-04-30 05:46 9.87650 -78.82199 32919 ft 432 kts 136°
2026-04-30 05:47 9.83540 -78.77951 32910 ft 428 kts 136°
2026-04-30 05:47 9.79342 -78.73616 32918 ft 431 kts 137°
2026-04-30 05:48 9.75165 -78.69301 32913 ft 431 kts 137°
2026-04-30 05:48 9.70958 -78.64959 32917 ft 432 kts 137°
2026-04-30 05:49 9.66798 -78.60663 32914 ft 432 kts 137°
2026-04-30 05:49 9.63001 -78.56749 32915 ft 433 kts 136°
2026-04-30 05:50 9.58790 -78.52400 32912 ft 430 kts 136°
2026-04-30 05:50 9.54609 -78.48091 32911 ft 432 kts 137°
2026-04-30 05:51 9.50380 -78.43739 32922 ft 436 kts 137°
2026-04-30 05:51 9.46126 -78.39355 32917 ft 436 kts 137°
2026-04-30 05:52 9.41890 -78.34991 32912 ft 436 kts 137°
2026-04-30 05:52 9.37676 -78.30655 32915 ft 437 kts 137°
2026-04-30 05:53 9.33533 -78.26395 32913 ft 431 kts 136°
2026-04-30 05:53 9.29342 -78.22084 32914 ft 430 kts 136°
2026-04-30 05:54 9.25177 -78.17757 32913 ft 427 kts 134°
2026-04-30 05:54 9.21151 -78.13355 32914 ft 428 kts 135°
2026-04-30 05:55 9.17089 -78.08921 32919 ft 431 kts 135°
2026-04-30 05:55 9.13059 -78.04533 32914 ft 430 kts 135°
2026-04-30 05:56 9.08953 -78.00063 32916 ft 431 kts 135°
2026-04-30 05:56 9.04860 -77.95614 32916 ft 434 kts 135°
2026-04-30 05:57 9.00760 -77.91161 32916 ft 434 kts 135°
2026-04-30 05:57 8.96644 -77.86690 32917 ft 434 kts 135°
2026-04-30 05:58 8.92552 -77.82252 32916 ft 432 kts 135°
2026-04-30 05:58 8.88512 -77.77869 32915 ft 432 kts 135°
2026-04-30 05:59 8.84427 -77.73439 32918 ft 431 kts 135°
2026-04-30 05:59 8.80370 -77.69038 32910 ft 425 kts 134°
2026-04-30 06:00 8.76349 -77.64682 32914 ft 425 kts 134°
2026-04-30 06:00 8.72324 -77.60324 32916 ft 425 kts 134°
2026-04-30 06:01 8.68325 -77.55993 32913 ft 425 kts 135°
2026-04-30 06:01 8.64262 -77.51596 32916 ft 430 kts 135°
2026-04-30 06:02 8.60189 -77.47188 32915 ft 432 kts 135°
2026-04-30 06:02 8.56077 -77.42742 32915 ft 431 kts 135°
2026-04-30 06:03 8.51902 -77.38458 32914 ft 429 kts 139°
2026-04-30 06:03 8.47553 -77.34359 32916 ft 430 kts 139°
2026-04-30 06:04 8.43227 -77.30267 32914 ft 431 kts 139°
2026-04-30 06:05 8.36584 -77.23967 32919 ft 439 kts 139°
2026-04-30 06:05 8.32165 -77.19768 32915 ft 435 kts 139°
2026-04-30 06:06 8.27798 -77.15612 32912 ft 431 kts 139°
2026-04-30 06:06 8.23442 -77.11468 32915 ft 431 kts 139°
2026-04-30 06:07 8.19101 -77.07342 32915 ft 431 kts 139°
2026-04-30 06:07 8.14706 -77.03161 32914 ft 437 kts 139°
2026-04-30 06:08 8.10297 -76.98971 32917 ft 435 kts 139°
2026-04-30 06:08 8.05930 -76.94819 32913 ft 431 kts 139°
2026-04-30 06:09 8.01565 -76.90673 32916 ft 432 kts 139°
2026-04-30 06:09 7.97221 -76.86545 32914 ft 432 kts 139°
2026-04-30 06:10 7.92863 -76.82409 32915 ft 431 kts 139°
2026-04-30 06:10 7.88526 -76.78291 32915 ft 430 kts 139°
2026-04-30 06:11 7.84169 -76.74155 32914 ft 430 kts 139°
2026-04-30 06:11 7.79657 -76.70254 32916 ft 428 kts 147°
2026-04-30 06:12 7.74759 -76.66816 32918 ft 431 kts 147°
2026-04-30 06:12 7.69859 -76.63364 32916 ft 430 kts 147°
2026-04-30 06:13 7.64972 -76.59909 32916 ft 429 kts 147°
2026-04-30 06:13 7.60121 -76.56471 32916 ft 426 kts 146°
2026-04-30 06:14 7.55288 -76.53040 32916 ft 429 kts 146°
2026-04-30 06:14 7.50404 -76.49571 32915 ft 429 kts 146°
2026-04-30 06:15 7.45562 -76.46130 32913 ft 426 kts 146°
2026-04-30 06:15 7.40763 -76.42718 32913 ft 425 kts 146°
2026-04-30 06:16 7.35966 -76.39310 32911 ft 427 kts 145°
2026-04-30 06:16 7.31087 -76.35844 32916 ft 428 kts 145°
2026-04-30 06:17 7.26222 -76.32390 32914 ft 427 kts 145°
2026-04-30 06:17 7.21389 -76.28956 32914 ft 427 kts 145°
2026-04-30 06:18 7.16516 -76.25497 32915 ft 429 kts 146°
2026-04-30 06:18 7.11640 -76.22034 32916 ft 430 kts 146°
2026-04-30 06:19 7.06765 -76.18572 32914 ft 430 kts 146°
2026-04-30 06:19 7.01893 -76.15116 32913 ft 433 kts 146°
2026-04-30 06:20 6.96961 -76.11618 32915 ft 435 kts 146°
2026-04-30 06:20 6.92054 -76.08138 32914 ft 434 kts 146°
2026-04-30 06:21 6.87126 -76.04644 32913 ft 434 kts 146°
2026-04-30 06:21 6.82208 -76.01156 32914 ft 434 kts 146°
2026-04-30 06:22 6.77269 -75.97653 32915 ft 435 kts 146°
2026-04-30 06:22 6.72350 -75.94170 32916 ft 436 kts 146°
2026-04-30 06:23 6.67390 -75.90656 32914 ft 436 kts 146°
2026-04-30 06:23 6.62433 -75.87151 32916 ft 436 kts 146°
2026-04-30 06:24 6.57480 -75.83637 32916 ft 436 kts 146°
2026-04-30 06:24 6.52531 -75.80134 32912 ft 436 kts 146°
2026-04-30 06:25 6.47592 -75.76640 32913 ft 436 kts 146°
2026-04-30 06:25 6.42670 -75.73161 32915 ft 436 kts 146°
2026-04-30 06:26 6.37718 -75.69658 32915 ft 437 kts 146°
2026-04-30 06:26 6.32758 -75.66149 32917 ft 440 kts 146°
2026-04-30 06:27 6.27769 -75.62620 32910 ft 435 kts 146°
2026-04-30 06:27 6.22840 -75.59138 32893 ft 434 kts 146°
2026-04-30 06:27 6.20388 -75.57406 32412 ft 425 kts 146°
2026-04-30 06:28 6.17973 -75.55697 31501 ft 427 kts 146°
2026-04-30 06:28 6.15547 -75.53983 30794 ft 423 kts 146°
2026-04-30 06:28 6.13194 -75.52319 30276 ft 415 kts 145°
2026-04-30 06:28 6.10835 -75.50657 29646 ft 411 kts 145°
2026-04-30 06:29 6.08524 -75.49023 29073 ft 406 kts 145°
2026-04-30 06:29 6.06212 -75.47390 28474 ft 402 kts 145°
2026-04-30 06:29 6.03948 -75.45792 27903 ft 399 kts 146°
2026-04-30 06:29 6.01680 -75.44193 27329 ft 396 kts 146°
2026-04-30 06:30 5.99450 -75.42615 26765 ft 394 kts 146°
2026-04-30 06:30 5.97271 -75.40981 26224 ft 391 kts 139°
2026-04-30 06:30 5.95363 -75.39045 25658 ft 389 kts 135°
2026-04-30 06:30 5.93510 -75.37118 25080 ft 388 kts 135°
2026-04-30 06:31 5.91659 -75.35186 24523 ft 386 kts 135°
2026-04-30 06:31 5.89803 -75.33258 23970 ft 383 kts 135°
2026-04-30 06:31 5.87946 -75.31332 23417 ft 381 kts 135°
2026-04-30 06:31 5.86120 -75.29447 23018 ft 376 kts 135°
2026-04-30 06:32 5.84354 -75.27624 22931 ft 373 kts 135°
2026-04-30 06:32 5.82510 -75.25721 22925 ft 378 kts 135°
2026-04-30 06:32 5.80655 -75.23813 22928 ft 384 kts 135°
2026-04-30 06:32 5.78774 -75.21880 22928 ft 389 kts 135°
2026-04-30 06:33 5.76877 -75.19931 22924 ft 393 kts 136°
2026-04-30 06:33 5.74961 -75.17961 22923 ft 398 kts 136°
2026-04-30 06:33 5.73033 -75.15983 22923 ft 399 kts 136°
2026-04-30 06:33 5.71092 -75.13992 22920 ft 400 kts 136°
2026-04-30 06:34 5.69086 -75.12065 22896 ft 396 kts 144°
2026-04-30 06:34 5.66695 -75.10794 22927 ft 392 kts 158°
2026-04-30 06:34 5.64124 -75.09777 22925 ft 397 kts 160°
2026-04-30 06:34 5.61580 -75.08799 22919 ft 394 kts 159°
2026-04-30 06:35 5.59025 -75.07804 22917 ft 393 kts 159°
2026-04-30 06:35 5.56473 -75.06798 22913 ft 390 kts 159°
2026-04-30 06:35 5.53992 -75.05808 22909 ft 384 kts 159°
2026-04-30 06:35 5.51506 -75.04812 22905 ft 384 kts 159°
2026-04-30 06:36 5.49046 -75.03821 22910 ft 381 kts 159°
2026-04-30 06:36 5.46611 -75.02834 22909 ft 378 kts 158°
2026-04-30 06:36 5.44296 -75.01895 22908 ft 375 kts 158°
2026-04-30 06:36 5.41844 -75.00894 22911 ft 373 kts 158°
2026-04-30 06:37 5.39432 -74.99913 22912 ft 372 kts 158°
2026-04-30 06:37 5.37068 -74.98943 22838 ft 366 kts 158°
2026-04-30 06:37 5.34735 -74.97959 22257 ft 365 kts 157°
2026-04-30 06:37 5.32363 -74.96958 21401 ft 373 kts 158°
2026-04-30 06:38 5.29993 -74.95952 20945 ft 368 kts 158°
2026-04-30 06:38 5.27648 -74.94971 20423 ft 365 kts 158°
2026-04-30 06:38 5.25317 -74.93971 19922 ft 362 kts 158°
2026-04-30 06:38 5.23054 -74.92976 19733 ft 353 kts 157°
2026-04-30 06:39 5.20870 -74.91904 19583 ft 348 kts 148°
2026-04-30 06:39 5.19143 -74.90265 19328 ft 344 kts 128°
2026-04-30 06:39 5.17965 -74.88157 18681 ft 349 kts 118°
2026-04-30 06:39 5.16820 -74.85974 17738 ft 361 kts 121°
2026-04-30 06:40 5.15602 -74.83737 17002 ft 366 kts 121°
2026-04-30 06:40 5.14379 -74.81548 16904 ft 354 kts 121°
2026-04-30 06:40 5.13257 -74.79377 16900 ft 350 kts 118°
2026-04-30 06:40 5.12482 -74.77068 16875 ft 352 kts 99°
2026-04-30 06:41 5.12718 -74.74652 16894 ft 356 kts 73°
2026-04-30 06:41 5.13991 -74.72526 16902 ft 361 kts 47°
2026-04-30 06:41 5.16051 -74.71121 16904 ft 363 kts 20°
2026-04-30 06:41 5.18452 -74.70330 16925 ft 365 kts 20°
2026-04-30 06:42 5.20577 -74.68976 16908 ft 362 kts 45°
2026-04-30 06:42 5.22149 -74.67028 16932 ft 363 kts 52°
2026-04-30 06:42 5.23832 -74.65131 16933 ft 363 kts 46°
2026-04-30 06:42 5.25403 -74.63206 16894 ft 361 kts 70°
2026-04-30 06:43 5.25557 -74.60749 16977 ft 354 kts 97°
2026-04-30 06:43 5.25483 -74.58289 16970 ft 356 kts 85°
2026-04-30 06:43 5.26292 -74.55948 17001 ft 359 kts 63°
2026-04-30 06:43 5.27457 -74.53750 17003 ft 360 kts 65°
2026-04-30 06:44 5.28511 -74.51498 17000 ft 359 kts 66°
2026-04-30 06:44 5.29537 -74.49221 16998 ft 357 kts 68°
2026-04-30 06:44 5.30526 -74.46955 16996 ft 357 kts 69°
2026-04-30 06:44 5.31051 -74.44559 16973 ft 352 kts 92°
2026-04-30 06:45 5.30788 -74.42129 17010 ft 353 kts 99°
2026-04-30 06:45 5.30559 -74.39664 17010 ft 354 kts 97°
2026-04-30 06:45 5.30351 -74.37220 17006 ft 353 kts 97°
2026-04-30 06:45 5.30032 -74.34789 16983 ft 350 kts 107°
2026-04-30 06:46 5.28908 -74.32679 16982 ft 343 kts 133°
2026-04-30 06:46 5.27016 -74.31284 16990 ft 340 kts 158°
2026-04-30 06:46 5.24725 -74.30835 16995 ft 338 kts 182°
2026-04-30 06:46 5.22459 -74.31389 17016 ft 338 kts 202°
2026-04-30 06:47 5.20264 -74.32273 17012 ft 340 kts 199°
2026-04-30 06:47 5.18043 -74.33002 17011 ft 339 kts 198°
2026-04-30 06:47 5.15790 -74.33735 17008 ft 339 kts 198°
2026-04-30 06:47 5.13541 -74.34454 16980 ft 338 kts 197°
2026-04-30 06:48 5.11326 -74.35159 16514 ft 336 kts 197°
2026-04-30 06:48 5.09080 -74.35867 15647 ft 345 kts 197°
2026-04-30 06:48 5.06757 -74.36595 14780 ft 355 kts 197°
2026-04-30 06:48 5.04430 -74.37319 14464 ft 347 kts 198°
2026-04-30 06:49 5.02163 -74.38025 14405 ft 337 kts 197°
2026-04-30 06:49 4.99948 -74.38710 14394 ft 332 kts 197°
2026-04-30 06:49 4.97780 -74.39376 14393 ft 331 kts 197°
2026-04-30 06:49 4.95568 -74.40030 14116 ft 327 kts 195°
2026-04-30 06:50 4.93363 -74.40645 13383 ft 322 kts 194°
2026-04-30 06:50 4.91222 -74.40998 12952 ft 302 kts 181°
2026-04-30 06:50 4.89285 -74.40555 12964 ft 285 kts 153°
2026-04-30 06:50 4.87828 -74.39222 12996 ft 283 kts 127°
2026-04-30 06:51 4.86776 -74.37616 13002 ft 276 kts 127°
2026-04-30 06:51 4.85629 -74.36077 12974 ft 269 kts 128°
2026-04-30 06:51 4.84517 -74.34613 12679 ft 259 kts 129°
2026-04-30 06:51 4.83461 -74.33229 12339 ft 246 kts 129°
2026-04-30 06:52 4.82430 -74.31881 12004 ft 245 kts 129°
2026-04-30 06:52 4.81403 -74.30529 11674 ft 242 kts 129°
2026-04-30 06:52 4.80395 -74.29203 11355 ft 240 kts 129°
2026-04-30 06:52 4.79386 -74.27877 11041 ft 238 kts 129°
2026-04-30 06:53 4.78384 -74.26558 10730 ft 234 kts 129°
2026-04-30 06:53 4.77428 -74.25300 10436 ft 227 kts 129°
2026-04-30 06:53 4.76482 -74.24053 10120 ft 221 kts 129°
2026-04-30 06:53 4.75576 -74.22860 9840 ft 212 kts 130°
2026-04-30 06:54 4.74717 -74.21729 9577 ft 193 kts 130°
2026-04-30 06:54 4.73951 -74.20718 9319 ft 178 kts 130°
2026-04-30 06:54 4.73207 -74.19741 9092 ft 168 kts 131°
2026-04-30 06:54 4.72515 -74.18838 8847 ft 159 kts 130°
2026-04-30 06:55 4.71861 -74.17970 8638 ft 154 kts 129°
2026-04-30 06:55 4.71218 -74.17132 8470 ft 151 kts 130°
2026-04-30 06:55 4.70599 -74.16321 8368 ft 131 kts 129°
2026-04-30 06:55 4.70182 -74.15770 8367 ft 71 kts 126°
2026-04-30 06:56 4.69975 -74.15493 8367 ft 37 kts 123°
2026-04-30 06:56 4.69834 -74.15311 8367 ft 30 kts 130°
2026-04-30 06:56 4.69735 -74.15157 8367 ft 24 kts 102°
2026-04-30 06:56 4.69708 -74.15008 8367 ft 21 kts 92°
2026-04-30 06:57 4.69692 -74.14875 8367 ft 19 kts 95°
2026-04-30 06:57 4.69675 -74.14750 8367 ft 17 kts 112°
2026-04-30 06:57 4.69612 -74.14659 8367 ft 15 kts 128°
2026-04-30 06:57 4.69551 -74.14581 8367 ft 13 kts 128°
2026-04-30 06:58 4.69501 -74.14513 8367 ft 12 kts 126°
2026-04-30 06:58 4.69451 -74.14446 8367 ft 12 kts 127°
2026-04-30 06:58 4.69404 -74.14384 8367 ft 12 kts 127°
2026-04-30 06:58 4.69354 -74.14319 8367 ft 11 kts 127°
2026-04-30 06:59 4.69308 -74.14258 8367 ft 11 kts 127°
2026-04-30 06:59 4.69303 -74.14205 8367 ft 8 kts 40°
2026-04-30 06:59 4.69347 -74.14171 8367 ft 8 kts 37°
2026-04-30 06:59 4.69360 -74.14161 8367 ft 0 kts 37°